Other Public Products
Issued by NWS Grand Forks, ND

Home | Current Version | Previous Version | Graphics & Text | Print | Product List | Glossary On
Versions: 1 2 3 4 5 6 7 8 9 10 11 12 13 14 15 16 17 18 19 20 21 22 23 24 25 26 27 28 29 30 31 32 33 34 35 36 37 38 39 40 41 42 43 44 45 46 47 48 49 50
000
FPUS83 KFGF 221110
OPUFGF
PRAIRIE TO PINES WEATHER ROUNDUP
NATIONAL WEATHER SERVICE EASTERN NORTH DAKOTA/GRAND FORKS ND
600 AM CDT SAT APR 22 2017

 **SATELLITE DATA USED TO AUGMENT SKY COVER AT AUTOMATED STATIONS**
 *****  WEATHER ACROSS EASTERN NORTH DAKOTA  *****

CITY           SKY/WX    TMP DP  RH WIND       PRES   REMARKS
GRAND FORKS    FAIR      45  40  82 SW10      30.16F
GRAND FORKS AF FAIR      43  38  85 SW8       30.17S
GRAND CITY NWS NOT AVBL
BUXTON         NOT AVBL
DEVILS LAKE    FAIR      44  38  79 SW9       30.18S
FARGO          FAIR      39  35  86 SW5       30.22S
WAHPETON ARPT  FAIR      39  34  81 CALM      30.25R
$$

 *****  WEATHER ACROSS CENTRAL AND WESTERN NORTH DAKOTA  *****

CITY           SKY/WX    TMP DP  RH WIND       PRES   REMARKS
JAMESTOWN      MOCLDY    41  36  82 W6        30.22S
BISMARCK       FAIR      34  33  96 CALM      30.23S
MINOT          FAIR      47  37  68 SW13      30.14F
MINOT AFB      FAIR      44  37  78 SW12      30.12F
GARRISON         N/A     38  34  85 S3        30.18F
WILLISTON      FAIR      39  35  86 SW7       30.16S
DICKINSON      FAIR      35  32  88 W7        30.19R
HETTINGER      FAIR      36  31  82 CALM      30.22S
$$

 *****  OTHER OBSERVATIONS NORTHEAST NORTH DAKOTA  *****

CITY           SKY/WX    TMP DP  RH WIND       PRES   REMARKS
WALHALLA       NOT AVBL
LANGDON        FAIR      39  39 100 E5        30.17S
CAVALIER       FAIR      41  41 100 NW6       30.16F
GRAFTON        FAIR      43  39  87 W3        30.18S
CANDO          NOT AVBL
FORT TOTTEN      N/A     44  38  79 SW3       29.95
ROLLA          FOG       39  39 100 NE6       30.16F VSB<1/4
RUGBY          NOT AVBL
 ***** THE ABOVE OBSERVATIONS ARE NON NWS ARE NOT QUALITY
        CONTROLLED AND MAY MIS-REPORT RAIN FOR SNOW...
$$

 *****  OTHER OBSERVATIONS SOUTHEAST NORTH DAKOTA *****

CITY           SKY/WX    TMP DP  RH WIND       PRES   REMARKS
COOPERSTOWN    FAIR      41  39  93 SW10      30.20S
VALLEY CITY    FAIR      41  41 100 SW10      30.23F
OAKES          NOT AVBL
GWINNER        SUNNY     39  37  93 MISG      30.24S
SHEYENNE NWR     N/A     36  36  99 CALM      29.95S
BUFFALO        NOT AVBL
WYNDMERE         N/A     37  36  93 W3          N/A
 ***** THE ABOVE OBSERVATIONS ARE NON NWS ARE NOT QUALITY
       CONTROLLED AND MAY MIS-REPORT RAIN FOR SNOW...
$$

  *****  WEATHER ACROSS NORTHERN MINNESOTA  *****

CITY           SKY/WX    TMP DP  RH WIND       PRES   REMARKS
FLAG ISLAND    MOCLDY    45  36  70 W7        30.11S
WARROAD        MOCLDY    45  37  76 W8        30.14S HAZE
ROSEAU         FAIR      45  37  76 SW7       30.14S
HALLOCK        FAIR      41  37  87 NW7       30.15S
THF RVR FALLS  FAIR      43  36  76 SW9       30.18S
HALSTAD          N/A     37  34  87 SW7         N/A
FOSSTON        FAIR      36  32  87 S7        30.20S
BAUDETTE       FAIR      41  32  70 SW5       30.13F
WASKISH        FAIR      37  36  93 CALM      30.16F
CROOKSTON      FAIR      41  37  87 S7        30.19S
$$
  *****  WEATHER ACROSS CENTRAL AND WEST MINNESOTA  *****

CITY           SKY/WX    TMP DP  RH WIND       PRES   REMARKS
BEMIDJI        FAIR      35  32  88 SW3       30.18F
PARK RAPIDS    FAIR      35  30  82 W3        30.21S
WADENA         FAIR      36  34  93 CALM      30.23R
DETROIT LAKES  FAIR      37  36  93 S3        30.23S
MOORHEAD       FAIR      41  36  81 S5        30.23F
FERGUS FALLS   FAIR      43  37  81 CALM      30.24S
ELBOW LAKE     FAIR      41  38  91 CALM      30.25R
MORRIS MN      FAIR      34  34 100 S5        30.24R
STAPLES        FAIR      36  32  87 W3        30.23R
WHEATON        FAIR      39  37  93 CALM      30.26S
$$
  *****  WEATHER ELSEWHERE ACROSS MINNESOTA  *****

CITY           SKY/WX    TMP DP  RH WIND       PRES   REMARKS
DULUTH         FAIR      37  29  72 SW5       30.18S
INTRNTL FALLS  FAIR      31  27  85 CALM      30.14S
ELY            FAIR      34  30  86 CALM      30.16R
CLOQUET        FAIR      36  27  69 W5        30.19R
BRAINERD       FAIR      33  30  88 S3        30.22R
HIBBING        FAIR      27  27 100 CALM      30.17S
ALEXANDRIA     FAIR      39  37  92 CALM      30.25R
SAINT CLOUD    FAIR      35  33  92 CALM      30.23R
MINNEAPOLIS    FAIR      42  36  79 CALM      30.23R
$$

  *****  WEATHER ACROSS SOUTH DAKOTA  *****

CITY           SKY/WX    TMP DP  RH WIND       PRES   REMARKS
SIOUX FALLS    FAIR      35  34  96 CALM      30.26S
BROOKINGS      FAIR      35  34  96 CALM      30.27R
WATERTOWN      FAIR      34  32  92 CALM      30.25S
HURON          FAIR      35  34  96 CALM      30.27R
SISSETON         N/A     42  37  82 W8        30.24R
ABERDEEN       FAIR      32  29  88 CALM      30.26S
MITCHELL       FAIR      39  36  89 CALM      30.27R
PIERRE         FAIR      39  33  79 W3        30.25R
MOBRIDGE       FAIR      40  35  83 SE3       30.23R
RAPID CITY     FAIR      35  31  85 SE6       30.23F
$$

  *****  SOME WEATHER IN NEARBY STATES *****

CITY           SKY/WX    TMP DP  RH WIND       PRES   REMARKS
GLASGOW MT     MOCLDY    41  38  89 W5        30.22R
GREAT FALLS MT CLOUDY    38  36  92 S7        30.28F
CHEYENNE WY    CLOUDY    33  32  96 SW7       30.23R FOG
SCOTTSBLUFF NE FAIR      35  32  88 E6        30.25S
OMAHA NE       CLOUDY    40  36  86 N10       30.22R
DES MOINES IA  FAIR      45  36  70 N7        30.18R
DAVENPORT IA   FAIR      40  32  73 NE8       30.18S
CHICAGO IL     MOCLDY    43  34  70 NE9       30.15F
EAU CLAIRE WI  FAIR      32  30  92 CALM      30.22R
LA CROSSE WI   FAIR      41  34  76 CALM      30.23R
$$

  *****  SOME NATIONAL WEATHER *****

CITY           SKY/WX    TMP DP  RH WIND       PRES   REMARKS
LA GUARDIA NY  CLOUDY    52  48  86 NE9       29.90F
RALEIGH NC     MOCLDY    65  63  93 SW3       29.89S
ATLANTA GA     FAIR      62  57  83 SW5       29.92R
NEW ORLEANS LA FAIR      66  65  96 SW5       29.89R
OKLAHOMA CITY  MOCLDY    46  42  86 N21       30.03S
ALBUQUERQUE NM FAIR      48  34  58 NW7       30.12R
SALT LAKE CITY FAIR      40  30  67 SE5       30.25R
LOS ANGELES CA FAIR      61  56  83 E5        29.87R
BOISE ID       FAIR      45  30  55 SE15      30.16S
SEATTLE WA     CLOUDY    61  34  36 E12       29.86F
$$

*** WEATHER ACROSS MANITOBA...SASKATCHEWAN AND ONTARIO ***
                ***ONTARIO***

CITY           SKY/WX    TMP DP  RH WIND       PRES   REMARKS
GERALDTON      PTCLDY    27  21  80 CALM      30.06F
THUNDER BAY    MOCLDY    30  28  93 W3        30.13S
SIOUX LOOKOUT  CLOUDY    32  30  93 VRB2      30.10S
TORONTO        MOCLDY    41  32  70 N17       30.03R
BIG TROUT LK   FLURRIES  16  12  86 N8G17     30.23S WCI   5
PICKLE LAKE    LGT RAIN  36  36 100 NE6       30.06
DRYDEN         CLOUDY    39  32  75 S6        30.09F
KENORA         MOCLDY    43  34  70 NW6       30.10S
$$
                *** MANITOBA***

CITY           SKY/WX    TMP DP  RH WIND       PRES   REMARKS
BRANDON        LGT RAIN  34  32  93 NE13      30.22S WCI  25
DAUPHIN        CLOUDY    30  28  93 NE9       30.30S WCI  22
ISLAND LAKE    CLOUDY    12   3  67 NE5G17    30.35R WCI   4
PILOT MOUND      N/A     39  37  93 N8          N/A
THE PAS        CLOUDY    23   7  50 N8        30.41R WCI  14
THOMPSON       PTCLDY     1  -6  71 NE6       30.43S WCI -10
WINNIPEG       CLOUDY    39  37  93 N13       30.19R
LYNN LAKE      CLOUDY     3  -2  78 N3        30.43R
CHURCHILL      CRYSTALS  -4  -9  77 NW16      30.43S WCI -25
GILLAM         PTCLDY    -8 -13  77 NW6       30.44S WCI -21
$$
                ***SASKATCHEWAN***

CITY           SKY/WX    TMP DP  RH WIND       PRES   REMARKS
ESTEVAN        MOCLDY    45  43  93 N13       30.18R
KINDERSLEY     PTCLDY    27  23  86 NE10      30.28S WCI  17
LLOYDMINSTER   CLOUDY    28  18  64 E10       30.32F WCI  19
PRINCE ALBERT  MOCLDY    30  19  64 N7        30.37R WCI  23
REGINA         CLOUDY    37  36  93 N9        30.25R
YORKTON        CLOUDY    32  30  93 N9        30.28R WC



USA.gov is the U.S. government's official web portal to all federal, state and local government web resources and services.